SCP
0 -0 -0 -0 -0 0 -0 -0 -0 -0 -0 0 -0 -0 -0 0 -0 -0 -0 -0 -0 -0 -0 -0 -0 -0 -0 -0 -0 -0 -0 -0 -0 -0 -0 -0 -0 0 0 0 0 0 0 0 0 0 0 0 0
-0 0 -0 -0 -0 0 0 -0 -0 -0 -0 -0 0 0 0 -0 0 -0 -0 -0 -0 -0 -0 -0 -0 -0 -0 -0 -0 -0 -0 -0 -0 -0 -0 0 0 0 0 0 0 0 0 0 0 0 0 0 0
-0 0 -0 -0 -0 0 0 -0 -0 -0 -0 -0 0 0 0 0 0 -0 -0 -0 -0 -0 -0 -0 -0 -0 -0 -0 -0 -0 -0 0 -0 0 0 0 0 0 0 0 0 0 0 0 0 0 0 0 0
-0 0 -0 -0 -0 0 -0 -0 -0 -0 0 -0 -0 0 0 0 0 0 -0 -0 -0 -0 -0 -0 -0 -0 -0 -0 -0 -0 -0 -0 -0 0 0 0 0 0 0 0 0 0 0 0 0 0 0 0 0
0 0 -0 -0 0 0 0 -0 -0 -0 0 0 -0 -0 0 0 0 -0 -0 -0 -0 -0 -0 -0 -0 -0 -0 -0 -0 -0 -0 0 0 0 0 0 0 0 0 0 0 0 0 0 0 0 0 0 0
0 -0 -0 -0 0 0 0 -0 -0 -0 0 0 0 0 0 0 0 -0 -0 -0 -0 -0 -0 -0 -0 -0 -0 -0 -0 -0 -0 0 0 0 0 0 0 0 0 0 0 0 0 0 0 0 0 0 0
-0 -0 -0 0 -0 -0 0 -0 -0 -0 0 -0 0 0 0 0 -0 -0 -0 -0 -0 -0 -0 -0 -0 -0 -0 -0 -0 0 0 0 0 0 0 0 0 0 0 0 0 0 0 0 0 0 0 0 0
0 0 -0 0 0 0 -0 -0 -0 -0 0 0 -0 0 0 -0 -0 -0 -0 -0 -0 -0 -0 -0 -0 -0 -0 -0 -0 0 0 -0 -0 -0 -0 0 0 0 0 0 0 0 0 0 0 0 0 0 0
0 -0 -0 -0 0 -0 0 0 0 -0 0 0 -0 0 0 -0 -0 -0 -0 -0 -0 -0 -0 -0 -0 -0 -0 -0 -0 -0 -0 -0 -0 -0 -0 -0 0 0 0 0 0 0 0 0 0 0 0 0 0
0 -0 -0 0 0 0 0 0 0 0 0 0 0 0 -0 0 0 -0 -0 -0 -0 -0 -0 -0 -0 -0 0 0 -0 0 0 0 0 -0 -0 -0 0 0 0 0 0 0 0 0 0 0 0 0 0
-0 0 0 0 0 0 0 0 0 0 -0 -0 -0 0 0 0 0 -0 -0 -0 -0 -0 0 -0 0 0 -0 0 0 0 0 0 0 0 0 0 0 0 0 0 0 0 0 0 0 0 0 0 0
0 0 0 0 0 0 0 0 0 0 0 -0 0 0 0 0 0 0 -0 -0 -0 -0 -0 0 0 -0 -0 0 -0 0 0 0 0 0 0 0 0 0 0 0 0 0 0 0 0 0 0 0 0
-0 0 -0 0 0 0 0 0 0 -0 0 0 0 0 0 0 0 0 0 0 0 0 0 -0 0 -0 -0 0 0 0 0 0 0 0 0 0 0 0 0 0 0 0 0 0 0 0 0 0 0
0 0 -0 -0 -0 -0 0 0 0 -0 -0 0 -0 0 0 0 0 0 0 0 -0 0 0 -0 0 0 0 0 0 0 0 0 0 0 0 0 0 0 0 0 0 0 0 0 0 0 0 0 0
0 0 0 0 -0 0 0 -0 0 -0 0 -0 0 0 0 0 0 0 0 0 0 0 0 0 0 0 0 0 0 0 0 0 0 0 0 0 0 0 0 0 0 0 0 0 0 0 0 0 0
-0 -0 -0 -0 -0 0 0 -0 -0 -0 0 -0 -0 0 0 0 0 0 0 0 0 -0 0 0 0 0 0 0 0 0 0 0 0 0 0 0 0 0 0 0 0 0 0 0 0 0 0 0 0
0 -0 -0 0 0 -0 -0 -0 -0 0 -0 0 0 0 0 0 0 0 0 0 0 0 0 0 0 0 0 0 1 1 1 0 0 0 0 0 0 0 0 0 0 0 0 0 0 0 0 0 0
-0 -0 -0 0 0 -0 -0 -0 0 0 0 0 -0 0 0 0 0 0 0 0 0 0 0 0 1 0 1 1 1 1 0 0 0 0 0 0 0 0 0 0 0 0 0 0 0 0 0 0 0
0 0 -0 0 0 -0 0 -0 -0 0 0 -0 -0 -0 0 0 0 0 0 0 0 1 1 2 2 5 4 3 2 3 3 2 1 0 0 0 0 0 0 0 0 0 0 0 0 0 0 0 0
0 0 0 0 0 0 0 0 0 0 0 0 0 0 0 0 0 2 4 3 2 3 4 5 5 5 4 5 3 3 1 3 0 0 0 0 0 0 0 0 0 0 0 0 0 0 0 0 0
-0 -0 -0 -0 0 0 -0 -0 0 0 0 0 0 0 0 1 2 2 1 2 2 3 3 3 5 4 4 4 3 2 1 0 0 0 0 0 0 0 0 0 0 0 0 0 0 0 0 0 0
0 0 -0 -0 -0 0 0 0 -0 0 0 0 0 0 0 0 1 2 1 1 1 1 1 1 1 1 1 1 1 1 1 0 0 0 0 0 0 0 0 0 0 0 0 0 0 0 0 0 0
0 0 0 -0 -0 -0 0 0 0 0 0 0 0 0 0 0 1 1 0 0 0 0 0 0 0 0 0 0 0 0 0 0 0 0 0 0 0 0 0 0 0 0 0 0 0 0 0 0 0
0 0 0 0 0 0 0 0 -0 0 0 0 0 0 0 0 0 0 0 0 0 0 0 0 0 0 0 0 0 0 0 0 0 0 0 0 0 0 0 0 0 0 0 0 0 0 0 0 0
0 0 0 0 0 0 -0 0 0 0 0 0 0 0 0 0 0 0 0 0 0 0 0 0 0 0 0 0 0 0 0 0 0 0 0 0 0 0 0 0 0 0 0 0 0 0 0 0 0
0 -0 -0 0 -0 -0 0 0 0 0 0 0 0 0 0 0 0 0 0 0 0 0 0 0 0 0 0 0 0 0 0 0 0 0 0 0 0 0 0 0 0 0 0 0 0 0 0 0 0
0 0 -0 0 0 0 -0 0 0 0 0 0 0 0 0 0 0 0 0 0 0 0 0 0 0 0 0 0 0 0 0 0 0 0 0 0 0 0 0 0 0 0 0 0 0 0 0 0 0
-0 0 0 0 0 0 0 0 0 0 0 0 0 0 0 0 0 0 0 0 0 0 0 0 0 0 0 0 0 0 0 0 0 0 0 0 0 0 0 0 0 0 0 0 0 0 0 0 0
0 0 0 0 0 0 0 0 0 0 0 0 0 0 0 0 0 0 0 0 0 0 0 0 0 0 0 0 0 0 0 0 0 0 0 0 0 0 0 0 0 0 0 0 0 0 0 0 0
0 0 0 0 0 0 0 0 0 0 0 0 0 0 0 0 0 0 0 0 0 0 0 0 0 0 0 0 0 0 0 0 0 0 0 0 0 0 0 0 0 0 0 0 0 -0 0 0 0
Wind_Speed_500mb
12 15 12 19 15 17 24 21 24 21 21 13 18 19 21 17 25 4 28 26 28 26 25 23 22 23 23 23 23 22 19 16 13 11 9 7 5 3 2 3 5 7 9 10 10 11 11 11 13
6 16 18 25 20 8 16 27 22 28 18 17 14 13 18 26 17 28 28 30 29 26 28 23 22 20 19 20 20 19 17 15 13 12 10 6 3 1 2 4 6 8 9 11 12 12 13 13 14
8 16 26 16 31 24 23 31 33 27 14 11 15 11 17 19 18 23 30 32 29 26 24 23 20 19 18 17 17 16 16 16 14 12 9 7 4 2 3 4 6 8 8 9 10 11 12 15 19
8 15 22 21 18 16 28 33 34 27 15 8 17 23 23 19 21 15 33 31 27 25 23 23 22 21 20 18 17 16 14 13 12 10 7 5 3 2 2 4 5 6 9 11 13 14 15 15 15
15 24 26 28 3 18 16 18 23 27 19 21 7 14 26 16 19 31 32 28 25 24 23 23 23 22 21 19 19 18 15 13 10 7 6 5 4 3 2 2 4 8 10 9 8 10 11 13 18
33 31 28 31 18 17 16 17 17 30 18 20 26 28 27 20 25 30 28 26 24 24 20 24 25 25 23 22 19 16 14 12 11 9 8 6 4 5 3 4 4 2 4 7 9 12 16 19 23
32 27 36 0 34 25 20 20 18 27 26 8 23 18 22 20 22 27 25 24 23 23 23 22 23 23 21 19 17 15 14 12 10 8 7 6 5 4 3 2 1 4 8 12 18 22 27 30 34
35 30 42 21 11 23 28 23 11 7 25 15 13 13 31 28 27 25 25 23 22 22 20 21 24 20 18 17 17 17 15 13 11 10 7 6 4 4 3 3 8 13 17 22 26 31 36 41 45
25 25 31 22 9 38 24 21 17 9 28 16 7 14 27 30 28 25 22 24 23 22 22 23 22 21 19 18 18 18 17 14 11 9 8 13 9 5 12 15 20 22 29 32 36 42 47 50 50
33 27 41 21 15 7 23 22 23 15 17 18 19 17 29 31 25 24 24 27 24 22 23 24 24 22 23 19 20 15 11 7 4 3 4 9 11 12 12 18 31 34 35 44 39 43 52 45 44
33 35 16 13 12 17 16 25 30 28 30 34 33 25 33 32 24 22 23 25 23 18 22 26 26 26 22 19 13 13 10 11 9 7 9 9 3 11 10 16 23 24 35 33 35 42 40 45 48
35 36 24 5 11 14 13 22 28 31 30 27 20 34 34 34 26 23 23 25 23 19 21 26 27 27 21 17 15 14 12 10 5 14 9 10 5 14 14 19 23 27 30 36 39 44 48 52 50
26 43 29 25 17 19 13 19 21 32 16 6 19 29 35 35 29 21 22 24 23 23 24 26 26 24 23 27 17 14 14 10 19 8 21 20 9 24 20 23 26 30 36 40 44 48 51 53 57
28 40 24 33 31 27 24 27 28 31 30 27 18 27 32 34 33 25 26 28 27 25 26 26 27 28 23 24 20 18 18 20 15 13 17 19 21 34 35 35 32 35 39 57 59 50 53 52 55
15 24 26 36 34 23 26 30 31 38 33 32 28 27 27 31 33 31 28 30 31 31 26 30 30 27 27 23 23 18 17 16 17 16 27 29 33 38 41 43 44 47 65 71 51 47 50 51 52
29 30 34 39 29 22 25 35 34 36 23 35 34 31 30 32 34 36 30 30 32 34 35 33 32 31 28 26 24 21 24 21 19 19 32 32 37 43 47 52 55 66 68 52 42 45 47 51 51
25 29 31 26 30 28 30 40 37 40 37 32 31 33 32 30 35 34 34 33 37 37 33 34 33 33 32 26 26 24 34 23 23 30 33 37 36 42 47 56 58 62 50 36 37 40 46 49 49
30 29 31 18 22 25 32 40 10 18 20 29 35 36 35 36 33 38 36 36 33 34 34 33 30 32 31 31 28 23 22 22 18 18 31 34 38 45 51 50 48 46 34 36 38 39 41 44 43
20 24 32 13 19 23 31 34 30 19 29 32 38 42 41 38 32 31 36 33 30 27 31 31 32 38 35 34 40 42 38 26 25 30 33 34 40 46 52 53 51 36 37 40 32 41 37 41 40
22 27 27 15 18 17 31 32 23 28 9 24 22 24 32 24 36 21 18 17 20 24 22 17 21 37 33 32 23 21 16 27 19 19 32 39 41 54 49 47 40 38 40 29 38 39 38 42 35
29 30 29 28 24 25 37 36 27 17 18 14 3 11 20 20 7 19 12 11 8 8 8 17 25 24 24 21 28 32 40 33 21 27 36 42 45 44 44 37 29 38 34 28 36 32 34 39 35
30 31 31 27 27 23 41 27 45 31 19 15 11 10 8 8 7 11 18 12 11 9 9 18 24 22 19 21 13 15 14 24 30 33 36 39 41 37 25 26 26 28 31 29 29 30 31 32 34
27 15 23 31 28 30 25 16 8 26 30 24 15 15 13 11 19 19 16 15 14 14 13 16 16 21 23 29 28 18 25 14 29 30 31 38 33 22 17 22 25 30 25 26 34 35 36 34 36
18 15 23 28 28 29 38 24 25 30 25 25 24 23 19 21 23 24 24 24 23 21 20 19 16 13 16 17 20 13 15 16 13 25 20 19 18 21 22 26 26 30 28 26 31 36 31 35 35
22 24 17 18 23 27 33 30 7 17 12 23 31 25 21 23 25 26 26 25 23 21 18 15 13 9 7 5 7 8 11 13 12 16 15 22 18 20 24 30 28 29 28 27 28 28 32 40 37
34 32 22 18 22 27 23 19 13 25 28 26 26 25 24 24 25 26 24 24 21 19 17 16 16 14 6 2 6 11 12 12 12 18 20 19 21 24 30 27 28 32 30 30 31 30 28 39 37
36 32 35 30 32 19 25 19 19 29 27 25 27 26 25 27 27 26 25 22 21 19 18 16 14 10 4 7 12 14 16 18 17 17 20 19 23 26 29 30 30 28 30 31 35 34 39 41 43
43 19 24 17 25 27 27 26 13 34 33 29 28 27 28 26 26 25 25 24 20 19 18 16 13 8 5 4 5 8 13 14 16 17 21 25 28 30 30 29 30 29 32 32 37 41 41 41 39
28 30 26 25 20 21 23 1 25 23 27 30 32 33 31 30 28 27 23 22 20 18 14 13 10 8 5 8 8 14 10 13 15 18 23 28 31 28 28 29 28 28 33 33 40 44 45 47 43
41 40 35 22 29 19 19 23 7 6 22 28 30 32 31 28 27 26 24 22 21 18 15 13 8 4 2 10 8 11 12 15 15 20 24 29 29 28 28 28 28 28 30 32 37 40 40 42 43
Wind_Direction_500mb
320 331 315 268 249 227 103 80 100 132 98 68 84 40 30 48 14 98 141 142 145 151 156 152 145 141 141 142 148 157 165 168 167 169 174 177 174 152 107 42 24 12 5 3 0 357 354 350 346
317 275 271 272 256 63 349 110 105 60 67 96 110 176 100 80 48 117 132 141 144 153 146 161 153 148 145 144 149 155 162 168 178 190 199 203 209 240 334 356 359 356 349 345 347 347 345 340 336
286 265 273 241 249 127 227 105 90 85 112 128 100 22 30 68 114 119 139 142 150 148 153 166 159 156 153 150 154 162 171 181 193 198 206 215 226 261 322 331 341 341 344 350 349 343 338 333 330
277 247 250 255 317 43 63 76 102 121 120 88 121 86 82 95 128 142 140 146 150 151 164 163 168 165 163 162 168 175 179 189 199 208 213 219 231 257 307 326 337 355 350 339 329 323 323 323 327
259 263 263 238 242 90 80 137 134 98 117 120 86 116 102 117 129 138 146 150 151 157 172 173 173 168 166 167 172 179 183 189 194 200 209 218 238 262 287 328 339 326 323 331 342 345 339 331 325
256 251 263 248 116 117 135 154 134 100 113 91 97 106 100 137 141 147 148 152 156 157 162 173 169 167 166 171 173 176 181 185 193 199 212 215 216 203 198 278 306 358 356 337 331 325 320 316 313
256 278 269 70 195 145 147 171 175 109 129 123 122 103 113 143 154 151 151 155 160 160 165 164 168 167 168 168 172 178 185 191 195 196 200 200 202 201 216 159 277 297 308 317 322 322 318 315 312
267 277 274 256 232 25 140 168 184 151 113 112 180 121 148 145 150 154 157 158 160 163 174 173 173 175 172 176 181 185 190 190 186 184 179 173 168 156 128 272 293 313 314 313 313 314 313 311 309
256 268 258 221 248 165 142 181 173 159 127 164 130 84 121 151 152 156 159 163 165 168 175 174 175 181 171 191 193 190 187 185 176 175 163 89 62 339 319 287 298 306 309 310 313 316 314 313 316
237 239 261 46 43 348 156 208 179 174 171 169 142 125 142 154 159 166 170 170 170 176 183 181 176 182 168 182 215 175 186 170 142 136 175 53 220 227 226 301 325 330 327 322 331 320 321 328 316
226 257 306 93 40 308 200 219 170 211 189 172 170 152 162 167 169 172 177 176 178 176 185 186 180 179 176 178 178 179 193 197 195 194 160 259 220 280 319 302 320 316 316 320 306 314 308 300 300
237 246 291 157 138 247 244 212 174 210 250 144 161 151 171 177 179 183 180 179 175 168 174 178 181 181 179 190 178 193 191 189 188 218 251 299 311 287 299 313 302 314 306 307 313 307 301 305 298
230 261 229 252 227 243 261 224 213 209 244 161 164 157 181 185 187 185 184 183 181 176 176 180 185 183 188 173 194 188 193 202 220 234 267 246 283 271 307 308 320 313 312 310 308 306 304 300 301
222 239 246 246 226 222 234 239 225 230 208 170 198 186 188 194 195 189 188 191 191 184 184 185 191 202 196 189 191 202 193 230 219 224 248 275 274 295 305 314 309 314 310 304 307 305 305 303 304
264 259 238 243 229 234 234 229 211 234 200 218 197 196 200 202 201 200 195 194 195 197 196 196 197 207 198 205 217 209 221 224 214 232 270 279 291 302 311 312 314 308 302 309 311 309 308 306 304
240 236 241 208 211 206 217 227 208 217 210 212 201 206 209 212 212 207 203 196 198 205 206 206 209 216 219 211 222 218 225 214 219 239 273 284 292 299 305 306 305 302 307 315 312 313 309 307 307
207 239 230 164 188 196 214 246 223 183 210 214 221 214 199 219 213 213 209 206 205 208 210 213 213 214 224 215 218 215 227 224 230 252 265 280 288 296 303 310 310 309 317 316 317 309 312 311 311
216 220 220 197 172 233 203 248 218 186 228 227 242 231 212 197 217 205 216 218 214 215 215 217 223 218 222 220 215 219 228 223 235 246 262 281 291 295 302 310 312 320 320 317 313 315 314 314 312
326 287 248 199 159 216 234 214 246 215 199 236 229 234 223 213 201 208 197 217 224 217 223 218 220 220 208 216 221 227 235 229 228 260 272 282 288 300 311 316 316 320 322 319 318 317 321 329 340
255 261 265 250 168 198 253 246 251 257 198 260 285 297 360 328 169 133 123 192 219 226 218 209 210 227 216 218 217 226 231 216 242 253 275 284 302 310 319 322 325 313 324 331 315 331 337 329 320
240 243 242 252 209 206 256 259 242 158 247 232 40 346 10 11 26 126 142 158 177 196 203 223 201 227 218 225 236 239 229 269 257 273 276 302 310 315 319 326 334 326 340 331 339 337 334 325 323
245 224 254 251 249 234 205 251 225 166 180 192 146 94 51 21 167 139 140 136 136 141 153 222 214 224 252 242 250 219 235 237 225 260 292 304 311 321 325 335 337 340 343 339 336 329 338 318 324
250 332 211 243 245 253 218 247 246 153 179 147 107 91 91 97 112 127 137 129 122 118 121 118 130 149 170 190 188 212 236 269 275 286 305 320 331 322 326 339 338 340 342 328 330 340 321 325 328
237 227 242 243 240 236 243 253 234 189 186 122 119 116 114 117 120 122 118 116 112 109 112 122 164 196 209 216 217 243 269 267 268 303 341 319 319 317 312 327 333 333 332 331 341 329 327 334 330
220 217 214 214 228 239 222 220 240 93 85 112 134 130 131 129 124 120 118 119 119 119 118 114 118 127 145 183 229 256 289 318 348 331 326 334 316 315 310 326 320 317 323 331 321 316 328 329 330
214 221 243 216 213 230 145 208 207 117 115 125 130 132 136 133 128 126 127 126 126 125 120 114 111 109 125 174 302 318 337 323 340 325 335 337 325 322 312 320 312 318 320 321 326 324 325 319 320
207 215 245 284 282 282 185 119 136 148 138 151 153 151 143 141 138 135 135 135 133 130 125 123 120 116 96 354 356 349 337 344 338 340 340 321 327 317 307 317 311 311 309 314 318 322 320 314 318
247 203 231 232 258 253 248 245 205 170 169 176 174 172 158 153 147 145 143 143 141 140 132 126 124 113 75 18 10 1 354 346 341 340 341 337 330 325 325 318 310 312 314 312 315 313 311 309 312
204 233 236 251 239 232 250 276 79 168 179 181 187 176 168 164 159 156 155 151 149 143 145 133 121 101 54 354 344 342 334 337 346 341 344 340 337 333 331 324 321 320 315 316 315 316 316 307 307
211 214 230 233 233 256 280 282 89 146 161 175 188 169 167 167 163 163 162 161 158 159 152 147 134 113 94 324 336 316 337 1 330 334 345 346 344 343 334 330 326 320 313 314 318 312 311 308 306
Wind_Speed_850mb
12 15 12 19 15 17 24 21 24 21 21 13 18 19 21 17 25 4 28 26 28 26 25 23 22 23 23 23 23 22 19 16 13 11 9 7 5 3 2 3 5 7 9 10 10 11 11 11 13
6 16 18 25 20 8 16 27 22 28 18 17 14 13 18 26 17 28 28 30 29 26 28 23 22 20 19 20 20 19 17 15 13 12 10 6 3 1 2 4 6 8 9 11 12 12 13 13 14
8 16 26 16 31 24 23 31 33 27 14 11 15 11 17 19 18 23 30 32 29 26 24 23 20 19 18 17 17 16 16 16 14 12 9 7 4 2 3 4 6 8 8 9 10 11 12 15 19
8 15 22 21 18 16 28 33 34 27 15 8 17 23 23 19 21 15 33 31 27 25 23 23 22 21 20 18 17 16 14 13 12 10 7 5 3 2 2 4 5 6 9 11 13 14 15 15 15
15 24 26 28 3 18 16 18 23 27 19 21 7 14 26 16 19 31 32 28 25 24 23 23 23 22 21 19 19 18 15 13 10 7 6 5 4 3 2 2 4 8 10 9 8 10 11 13 18
33 31 28 31 18 17 16 17 17 30 18 20 26 28 27 20 25 30 28 26 24 24 20 24 25 25 23 22 19 16 14 12 11 9 8 6 4 5 3 4 4 2 4 7 9 12 16 19 23
32 27 36 0 34 25 20 20 18 27 26 8 23 18 22 20 22 27 25 24 23 23 23 22 23 23 21 19 17 15 14 12 10 8 7 6 5 4 3 2 1 4 8 12 18 22 27 30 34
35 30 42 21 11 23 28 23 11 7 25 15 13 13 31 28 27 25 25 23 22 22 20 21 24 20 18 17 17 17 15 13 11 10 7 6 4 4 3 3 8 13 17 22 26 31 36 41 45
25 25 31 22 9 38 24 21 17 9 28 16 7 14 27 30 28 25 22 24 23 22 22 23 22 21 19 18 18 18 17 14 11 9 8 13 9 5 12 15 20 22 29 32 36 42 47 50 50
33 27 41 21 15 7 23 22 23 15 17 18 19 17 29 31 25 24 24 27 24 22 23 24 24 22 23 19 20 15 11 7 4 3 4 9 11 12 12 18 31 34 35 44 39 43 52 45 44
33 35 16 13 12 17 16 25 30 28 30 34 33 25 33 32 24 22 23 25 23 18 22 26 26 26 22 19 13 13 10 11 9 7 9 9 3 11 10 16 23 24 35 33 35 42 40 45 48
35 36 24 5 11 14 13 22 28 31 30 27 20 34 34 34 26 23 23 25 23 19 21 26 27 27 21 17 15 14 12 10 5 14 9 10 5 14 14 19 23 27 30 36 39 44 48 52 50
26 43 29 25 17 19 13 19 21 32 16 6 19 29 35 35 29 21 22 24 23 23 24 26 26 24 23 27 17 14 14 10 19 8 21 20 9 24 20 23 26 30 36 40 44 48 51 53 57
28 40 24 33 31 27 24 27 28 31 30 27 18 27 32 34 33 25 26 28 27 25 26 26 27 28 23 24 20 18 18 20 15 13 17 19 21 34 35 35 32 35 39 57 59 50 53 52 55
15 24 26 36 34 23 26 30 31 38 33 32 28 27 27 31 33 31 28 30 31 31 26 30 30 27 27 23 23 18 17 16 17 16 27 29 33 38 41 43 44 47 65 71 51 47 50 51 52
29 30 34 39 29 22 25 35 34 36 23 35 34 31 30 32 34 36 30 30 32 34 35 33 32 31 28 26 24 21 24 21 19 19 32 32 37 43 47 52 55 66 68 52 42 45 47 51 51
25 29 31 26 30 28 30 40 37 40 37 32 31 33 32 30 35 34 34 33 37 37 33 34 33 33 32 26 26 24 34 23 23 30 33 37 36 42 47 56 58 62 50 36 37 40 46 49 49
30 29 31 18 22 25 32 40 10 18 20 29 35 36 35 36 33 38 36 36 33 34 34 33 30 32 31 31 28 23 22 22 18 18 31 34 38 45 51 50 48 46 34 36 38 39 41 44 43
20 24 32 13 19 23 31 34 30 19 29 32 38 42 41 38 32 31 36 33 30 27 31 31 32 38 35 34 40 42 38 26 25 30 33 34 40 46 52 53 51 36 37 40 32 41 37 41 40
22 27 27 15 18 17 31 32 23 28 9 24 22 24 32 24 36 21 18 17 20 24 22 17 21 37 33 32 23 21 16 27 19 19 32 39 41 54 49 47 40 38 40 29 38 39 38 42 35
29 30 29 28 24 25 37 36 27 17 18 14 3 11 20 20 7 19 12 11 8 8 8 17 25 24 24 21 28 32 40 33 21 27 36 42 45 44 44 37 29 38 34 28 36 32 34 39 35
30 31 31 27 27 23 41 27 45 31 19 15 11 10 8 8 7 11 18 12 11 9 9 18 24 22 19 21 13 15 14 24 30 33 36 39 41 37 25 26 26 28 31 29 29 30 31 32 34
27 15 23 31 28 30 25 16 8 26 30 24 15 15 13 11 19 19 16 15 14 14 13 16 16 21 23 29 28 18 25 14 29 30 31 38 33 22 17 22 25 30 25 26 34 35 36 34 36
18 15 23 28 28 29 38 24 25 30 25 25 24 23 19 21 23 24 24 24 23 21 20 19 16 13 16 17 20 13 15 16 13 25 20 19 18 21 22 26 26 30 28 26 31 36 31 35 35
22 24 17 18 23 27 33 30 7 17 12 23 31 25 21 23 25 26 26 25 23 21 18 15 13 9 7 5 7 8 11 13 12 16 15 22 18 20 24 30 28 29 28 27 28 28 32 40 37
34 32 22 18 22 27 23 19 13 25 28 26 26 25 24 24 25 26 24 24 21 19 17 16 16 14 6 2 6 11 12 12 12 18 20 19 21 24 30 27 28 32 30 30 31 30 28 39 37
36 32 35 30 32 19 25 19 19 29 27 25 27 26 25 27 27 26 25 22 21 19 18 16 14 10 4 7 12 14 16 18 17 17 20 19 23 26 29 30 30 28 30 31 35 34 39 41 43
43 19 24 17 25 27 27 26 13 34 33 29 28 27 28 26 26 25 25 24 20 19 18 16 13 8 5 4 5 8 13 14 16 17 21 25 28 30 30 29 30 29 32 32 37 41 41 41 39
28 30 26 25 20 21 23 1 25 23 27 30 32 33 31 30 28 27 23 22 20 18 14 13 10 8 5 8 8 14 10 13 15 18 23 28 31 28 28 29 28 28 33 33 40 44 45 47 43
41 40 35 22 29 19 19 23 7 6 22 28 30 32 31 28 27 26 24 22 21 18 15 13 8 4 2 10 8 11 12 15 15 20 24 29 29 28 28 28 28 28 30 32 37 40 40 42 43
Wind_Direction_850mb
320 331 315 268 249 227 103 80 100 132 98 68 84 40 30 48 14 98 141 142 145 151 156 152 145 141 141 142 148 157 165 168 167 169 174 177 174 152 107 42 24 12 5 3 0 357 354 350 346
317 275 271 272 256 63 349 110 105 60 67 96 110 176 100 80 48 117 132 141 144 153 146 161 153 148 145 144 149 155 162 168 178 190 199 203 209 240 334 356 359 356 349 345 347 347 345 340 336
286 265 273 241 249 127 227 105 90 85 112 128 100 22 30 68 114 119 139 142 150 148 153 166 159 156 153 150 154 162 171 181 193 198 206 215 226 261 322 331 341 341 344 350 349 343 338 333 330
277 247 250 255 317 43 63 76 102 121 120 88 121 86 82 95 128 142 140 146 150 151 164 163 168 165 163 162 168 175 179 189 199 208 213 219 231 257 307 326 337 355 350 339 329 323 323 323 327
259 263 263 238 242 90 80 137 134 98 117 120 86 116 102 117 129 138 146 150 151 157 172 173 173 168 166 167 172 179 183 189 194 200 209 218 238 262 287 328 339 326 323 331 342 345 339 331 325
256 251 263 248 116 117 135 154 134 100 113 91 97 106 100 137 141 147 148 152 156 157 162 173 169 167 166 171 173 176 181 185 193 199 212 215 216 203 198 278 306 358 356 337 331 325 320 316 313
256 278 269 70 195 145 147 171 175 109 129 123 122 103 113 143 154 151 151 155 160 160 165 164 168 167 168 168 172 178 185 191 195 196 200 200 202 201 216 159 277 297 308 317 322 322 318 315 312
267 277 274 256 232 25 140 168 184 151 113 112 180 121 148 145 150 154 157 158 160 163 174 173 173 175 172 176 181 185 190 190 186 184 179 173 168 156 128 272 293 313 314 313 313 314 313 311 309
256 268 258 221 248 165 142 181 173 159 127 164 130 84 121 151 152 156 159 163 165 168 175 174 175 181 171 191 193 190 187 185 176 175 163 89 62 339 319 287 298 306 309 310 313 316 314 313 316
237 239 261 46 43 348 156 208 179 174 171 169 142 125 142 154 159 166 170 170 170 176 183 181 176 182 168 182 215 175 186 170 142 136 175 53 220 227 226 301 325 330 327 322 331 320 321 328 316
226 257 306 93 40 308 200 219 170 211 189 172 170 152 162 167 169 172 177 176 178 176 185 186 180 179 176 178 178 179 193 197 195 194 160 259 220 280 319 302 320 316 316 320 306 314 308 300 300
237 246 291 157 138 247 244 212 174 210 250 144 161 151 171 177 179 183 180 179 175 168 174 178 181 181 179 190 178 193 191 189 188 218 251 299 311 287 299 313 302 314 306 307 313 307 301 305 298
230 261 229 252 227 243 261 224 213 209 244 161 164 157 181 185 187 185 184 183 181 176 176 180 185 183 188 173 194 188 193 202 220 234 267 246 283 271 307 308 320 313 312 310 308 306 304 300 301
222 239 246 246 226 222 234 239 225 230 208 170 198 186 188 194 195 189 188 191 191 184 184 185 191 202 196 189 191 202 193 230 219 224 248 275 274 295 305 314 309 314 310 304 307 305 305 303 304
264 259 238 243 229 234 234 229 211 234 200 218 197 196 200 202 201 200 195 194 195 197 196 196 197 207 198 205 217 209 221 224 214 232 270 279 291 302 311 312 314 308 302 309 311 309 308 306 304
240 236 241 208 211 206 217 227 208 217 210 212 201 206 209 212 212 207 203 196 198 205 206 206 209 216 219 211 222 218 225 214 219 239 273 284 292 299 305 306 305 302 307 315 312 313 309 307 307
207 239 230 164 188 196 214 246 223 183 210 214 221 214 199 219 213 213 209 206 205 208 210 213 213 214 224 215 218 215 227 224 230 252 265 280 288 296 303 310 310 309 317 316 317 309 312 311 311
216 220 220 197 172 233 203 248 218 186 228 227 242 231 212 197 217 205 216 218 214 215 215 217 223 218 222 220 215 219 228 223 235 246 262 281 291 295 302 310 312 320 320 317 313 315 314 314 312
326 287 248 199 159 216 234 214 246 215 199 236 229 234 223 213 201 208 197 217 224 217 223 218 220 220 208 216 221 227 235 229 228 260 272 282 288 300 311 316 316 320 322 319 318 317 321 329 340
255 261 265 250 168 198 253 246 251 257 198 260 285 297 360 328 169 133 123 192 219 226 218 209 210 227 216 218 217 226 231 216 242 253 275 284 302 310 319 322 325 313 324 331 315 331 337 329 320
240 243 242 252 209 206 256 259 242 158 247 232 40 346 10 11 26 126 142 158 177 196 203 223 201 227 218 225 236 239 229 269 257 273 276 302 310 315 319 326 334 326 340 331 339 337 334 325 323
245 224 254 251 249 234 205 251 225 166 180 192 146 94 51 21 167 139 140 136 136 141 153 222 214 224 252 242 250 219 235 237 225 260 292 304 311 321 325 335 337 340 343 339 336 329 338 318 324
250 332 211 243 245 253 218 247 246 153 179 147 107 91 91 97 112 127 137 129 122 118 121 118 130 149 170 190 188 212 236 269 275 286 305 320 331 322 326 339 338 340 342 328 330 340 321 325 328
237 227 242 243 240 236 243 253 234 189 186 122 119 116 114 117 120 122 118 116 112 109 112 122 164 196 209 216 217 243 269 267 268 303 341 319 319 317 312 327 333 333 332 331 341 329 327 334 330
220 217 214 214 228 239 222 220 240 93 85 112 134 130 131 129 124 120 118 119 119 119 118 114 118 127 145 183 229 256 289 318 348 331 326 334 316 315 310 326 320 317 323 331 321 316 328 329 330
214 221 243 216 213 230 145 208 207 117 115 125 130 132 136 133 128 126 127 126 126 125 120 114 111 109 125 174 302 318 337 323 340 325 335 337 325 322 312 320 312 318 320 321 326 324 325 319 320
207 215 245 284 282 282 185 119 136 148 138 151 153 151 143 141 138 135 135 135 133 130 125 123 120 116 96 354 356 349 337 344 338 340 340 321 327 317 307 317 311 311 309 314 318 322 320 314 318
247 203 231 232 258 253 248 245 205 170 169 176 174 172 158 153 147 145 143 143 141 140 132 126 124 113 75 18 10 1 354 346 341 340 341 337 330 325 325 318 310 312 314 312 315 313 311 309 312
204 233 236 251 239 232 250 276 79 168 179 181 187 176 168 164 159 156 155 151 149 143 145 133 121 101 54 354 344 342 334 337 346 341 344 340 337 333 331 324 321 320 315 316 315 316 316 307 307
211 214 230 233 233 256 280 282 89 146 161 175 188 169 167 167 163 163 162 161 158 159 152 147 134 113 94 324 336 316 337 1 330 334 345 346 344 343 334 330 326 320 313 314 318 312 311 308 306